Tracking 28790 objects as of 19-Apr-2024
HD Live streaming from Space Station
objects crossing your sky now

FENGYUN 1C DEB

Track FENGYUN 1C DEB now!
10-day predictions


NORAD ID: 31177
Int'l Code: 1999-025BJF
Perigee: 820.3 km
Apogee: 1,317.3 km
Inclination: 98.8 °
Period: 106.4 minutes
Semi major axis: 7439 km
RCS: 0.0107 m2 (small)
Launch date: May 10, 1999
Source: People's Republic of China (PRC)
Launch site: Taiyaun Space Center, China (TSC)

Note: This is SATELLITE DEBRIS
Your satellite tracking list
Your tracking list is empty




NASA's NSSDC Master Catalog

Two Line Element Set (TLE):
1 31177U 99025BJF 24109.40463823  .00010750  00000-0  11372-1 0  9998
2 31177  98.7738  80.4926 0334067  80.0974  68.7523 13.52884152580219
Source of the keplerian elements: AFSPC